OBJECT D

Satellite information

Favourite Embed

Satellite Type and Status

UNKNOWNIN ORBIT

Key statistics

Satellite OBJECT D at a glance.

Uptime

933

Days in orbit

Revolutions

≈ 15.5

Per day

Orbit

SSO

Sun Synchronous Orbit

Inclination

97.5

Latest

Satellite identification and parameters

Extended collection of information and parameters for OBJECT D.

Object identification

Identified? True

Debris? False

Object name: OBJECT D

International designator: 2023-072D

Object number (NORAD): 56746

Object ID (CCSDS): 56746

Country: SOUTH KOREA (SKOR)

Current information (Y/N): Y

RCS size: SMALL

Orbital parameters

Period: 93.07 minutes

Inclination: 97.5142 deg

SMA: 6802.986 km

Apoapsis: 426.489 km

Periapsis: 423.213 km

RAAN: 187.7754 deg

Eccentricy: 0.00024077

Argument of periapsis: 302.4517 deg

Mean anomaly: 57.65 deg

Mean motion: 15.47224574 rev/day

Mean motion (dot): 0.00053434 rev/day2

B* drag term: 0.0010463531 1/REarth

Two-line elements (TLE)

Creation date: Dec. 12, 2025, 10:14 a.m.

Reference frame: TEME

Reference center: EARTH

Epoch: Dec. 12, 2025, 8:18 a.m. UTC

TLE line 0: 0 OBJECT D

TLE line 1: 1 56746U 23072D 25346.34645816 .00053434 00000-0 10464-2 0 9995

TLE line 2: 2 56746 97.5142 187.7754 0002408 302.4517 57.6500 15.47224574141788

Live tracking on map

Real-time ground track for satellite OBJECT D.

In-orbit conjunctions

There are no conjunctions computed for OBJECT D, at the moment. Check back to stay up to date, as we update our databases every day.

Go to all conjunctions

Associated space launch

Third flight of the KSLV-II "Nuri" launch vehicle, carrying NEXTSat-2 as well as SNIPE A through D.

OBJECT D was lifted into orbit during the mission ‘Nuri | NEXTSat-2 & SNIPE’, on board a Nuri space rocket.

The launch took place on May 25, 2023, 9:24 a.m. from LC-2.

For more information about the launch, click the button.

Launch to space Nuri | NEXTSat-2 & SNIPE
Nuri | NEXTSat-2 & SNIPE

Agency: N/A

Status: Launch Successful

Launch date: May 25, 2023, 9:24 a.m. UTC

Rocket: Nuri

Launch pad: LC-2

Location: Naro Space Center, South Korea

...

Latest news about this satellite

News about space launch
South Korea’s KSLV-2 rocket launches seven satellites, one unaccounted for

South Korea’s KSLV-2 rocket put seven satellites, including one equipped with synthetic aperture radar, into sun-synchronous orbit May 25, although an eighth cubesat is believed to have not deployed properly.

News about space launch
South Korea’s KSLV-2 rocket set to launch May 24

South Korea’s homegrown KSLV-2 rocket is slated to launch May 24, carrying a 180-kilogram technology demonstration satellite and seven cubesats.


Newsletter sign-up

Weekly statistics, charts and insights to help you stay on top of the space industry.